This is the latest recevied weather packets stored in our database for station/object W9QL-13. If no packets are shown the sender has not sent any weather packets the latest 10 day(s).
| Time | Temp. | Humidity | Pressure | Rain* | Wind** | Luminosity | Snow |
|---|---|---|---|---|---|---|---|
| 1778378249 | 12.22° C | 52% | 1007.8 hPa | 0 mm | - | - | - |
| 1778377949 | 12.22° C | 52% | 1007.7 hPa | 0 mm | - | - | - |
| 1778377619 | 12.78° C | 50% | 1007.6 hPa | 0 mm | - | - | - |
| 1778377319 | 12.78° C | 50% | 1007.5 hPa | 0 mm | - | - | - |
| 1778377019 | 13.33° C | 49% | 1007.2 hPa | 0 mm | - | - | - |
| 1778376689 | 13.33° C | 48% | 1007.2 hPa | 0 mm | - | - | - |
| 1778376389 | 13.89° C | 48% | 1007.1 hPa | 0 mm | - | - | - |
| 1778376089 | 13.89° C | 47% | 1006.9 hPa | 0 mm | - | - | - |
| 1778375789 | 14.44° C | 46% | 1006.9 hPa | 0 mm | - | - | - |
| 1778375459 | 14.44° C | 46% | 1006.8 hPa | 0 mm | - | - | - |
| 1778375159 | 15° C | 44% | 1006.7 hPa | 0 mm | - | - | - |
| 1778374859 | 15.56° C | 42% | 1006.6 hPa | 0 mm | - | - | - |
| 1778374529 | 16.11° C | 40% | 1006.5 hPa | 0 mm | - | - | - |
| 1778374229 | 16.67° C | 39% | 1006.3 hPa | 0 mm | - | - | - |
| 1778373929 | 16.67° C | 38% | 1006.1 hPa | 0 mm | - | - | - |
| 1778373629 | 16.67° C | 38% | 1006.1 hPa | 0 mm | - | - | - |
| 1778373329 | 17.22° C | 37% | 1006 hPa | 0 mm | - | - | - |
| 1778372999 | 17.22° C | 37% | 1005.8 hPa | 0 mm | - | - | - |
| 1778372669 | 17.22° C | 37% | 1005.7 hPa | 0 mm | - | - | - |
| 1778372369 | 17.78° C | 36% | 1005.5 hPa | 0 mm | - | - | - |
| 1778372039 | 17.78° C | 37% | 1005.3 hPa | 0 mm | - | - | - |
| 1778371739 | 17.78° C | 36% | 1005.2 hPa | 0 mm | - | - | - |
| 1778371439 | 18.33° C | 36% | 1005.1 hPa | 0 mm | - | - | - |
| 1778371139 | 18.33° C | 37% | 1005 hPa | 0 mm | - | - | - |
| 1778370839 | 18.33° C | 36% | 1004.8 hPa | 0 mm | - | - | - |
* Rain latest hour (hover to see other rain measurements)
** Current wind speed in m/s (hover to see current wind gust speed)